SCP
0 0 0 0 0 0 0 0 0 0 0 0 0 0 0 0 0 0 0 0 0 0 0 0 0 0 0 0 0 0 0 0 0 0 0 0 0 0 0 0 0 0 0 0
0 0 0 0 0 0 0 0 0 0 0 0 0 0 0 0 0 0 0 0 0 0 0 0 0 0 0 0 0 0 0 0 0 0 0 0 0 0 0 0 0 0 0 0
0 0 0 0 0 0 0 0 0 0 0 0 0 0 0 0 0 0 0 0 0 0 0 0 0 0 0 0 0 0 0 0 0 0 0 0 0 0 0 0 0 0 0 0
0 0 0 0 0 0 0 0 0 0 0 0 0 0 0 0 0 0 0 0 0 0 0 0 0 0 0 0 0 0 0 0 0 0 0 0 0 0 0 0 0 0 0 0
0 0 0 0 0 0 0 0 0 0 0 0 0 0 0 0 0 0 0 0 0 0 0 0 0 0 0 0 0 0 0 0 0 0 0 0 0 0 0 0 0 0 0 0
0 0 0 0 0 0 0 0 0 0 0 0 0 0 0 0 0 0 0 0 0 0 0 0 0 0 0 0 0 0 0 0 0 0 0 0 0 0 0 0 0 0 0 0
0 0 0 0 0 0 0 0 0 0 0 0 0 0 0 0 0 0 0 0 0 0 0 0 0 0 0 0 0 0 0 0 0 0 0 0 0 0 0 0 0 0 0 0
0 0 0 0 0 0 0 0 0 0 0 0 0 0 0 0 0 0 0 0 0 0 0 0 0 0 0 0 0 0 0 0 0 0 0 0 0 0 0 0 0 0 0 0
0 0 0 0 0 0 0 0 0 0 0 0 0 0 0 0 0 0 0 0 0 0 0 0 0 0 0 0 0 0 0 0 0 0 0 0 0 0 0 0 0 0 0 0
0 0 0 0 0 0 0 0 0 0 0 0 0 0 0 0 0 0 0 0 0 0 0 0 0 0 0 0 0 0 0 0 0 0 0 0 0 0 0 0 0 0 0 0
0 0 0 0 0 0 0 0 0 0 0 0 0 0 0 0 0 0 0 0 0 0 0 0 0 0 0 0 0 0 0 0 0 0 0 0 0 0 0 0 0 0 0 0
0 0 0 0 0 0 0 0 0 0 0 0 0 0 0 0 0 0 0 0 0 0 0 0 0 0 0 0 0 0 0 0 0 0 0 0 0 0 0 0 0 0 0 0
0 0 0 0 0 0 0 0 0 0 0 0 0 0 0 0 0 0 0 0 0 0 0 0 0 0 0 0 0 0 0 0 0 0 0 0 0 0 0 0 0 0 0 0
0 0 0 0 0 0 0 0 0 0 0 0 0 0 0 0 0 0 0 0 0 0 0 0 0 0 0 0 0 0 0 0 0 0 0 0 0 0 0 0 0 0 0 0
0 0 0 0 0 0 0 0 0 0 0 0 0 0 0 0 0 0 0 0 0 0 0 0 0 0 0 0 0 0 0 0 0 0 0 0 0 0 0 0 0 0 0 0
0 0 0 0 0 0 0 0 0 0 0 0 0 0 0 0 0 0 0 0 0 0 0 0 0 0 0 0 0 0 0 0 0 0 0 0 0 0 0 0 0 0 0 0
0 0 0 0 0 0 0 0 0 0 0 0 0 0 0 0 0 0 0 0 0 0 0 0 0 0 0 0 0 0 0 0 0 0 0 0 0 0 0 0 0 0 0 0
0 0 0 0 0 0 0 0 0 0 0 0 0 0 0 0 0 0 0 0 0 0 0 0 0 0 0 0 0 0 0 0 0 0 0 0 0 0 0 0 0 0 0 0
0 0 0 0 0 0 0 0 0 0 0 0 0 0 0 0 0 0 0 0 0 0 0 0 0 0 0 0 0 0 0 0 0 0 0 0 0 0 0 0 0 0 0 0
0 0 0 0 0 0 0 0 0 0 0 0 0 0 0 0 0 0 0 0 0 0 0 0 0 0 0 0 0 0 0 0 0 0 0 0 0 0 0 0 0 0 0 0
0 0 0 0 0 0 0 0 0 0 0 0 0 0 0 0 0 0 0 0 0 0 0 0 0 0 0 0 0 0 0 0 0 0 0 0 0 0 0 0 0 0 0 0
0 0 0 0 0 0 0 0 0 0 0 0 0 0 0 0 0 0 0 0 0 0 0 0 0 0 0 0 0 0 0 0 0 0 0 0 0 0 0 0 0 0 0 0
0 0 0 0 0 0 0 0 0 0 0 0 0 0 0 0 0 0 0 0 0 0 0 0 0 0 0 0 0 0 0 0 0 0 0 0 0 0 0 0 0 0 0 0
0 0 0 0 0 0 0 0 0 0 0 0 0 0 0 0 0 0 0 0 0 0 0 0 0 0 0 0 0 0 0 0 0 0 0 0 0 0 0 0 0 0 0 0
0 0 0 0 0 0 0 0 0 0 0 0 0 0 0 0 0 0 0 0 0 0 0 0 0 0 0 0 0 0 0 0 0 0 0 0 0 0 0 0 0 0 0 0
0 0 0 0 0 0 0 0 0 0 0 0 0 0 0 0 0 0 0 0 0 0 0 0 0 0 0 0 0 0 0 0 0 0 0 0 0 0 0 0 0 0 0 0
0 0 0 0 0 0 0 0 0 0 0 0 0 0 0 0 0 0 0 0 0 0 0 0 0 0 0 0 0 0 0 0 0 0 0 0 0 0 0 0 0 0 0 0
Wind_Speed
8 5 7 9 11 12 14 13 11 9 9 8 6 4 4 3 3 4 5 6 8 9 9 10 11 11 12 11 11 11 11 10 9 8 8 7 7 6 5 5 5 4 4 3
10 7 8 10 11 13 14 13 13 12 11 6 6 5 5 5 5 6 6 7 7 9 10 11 12 12 12 12 12 12 11 11 9 9 9 8 7 7 6 5 4 4 4 3
9 7 8 11 11 12 12 11 11 11 8 5 5 5 6 6 6 7 7 7 8 9 10 10 12 13 13 13 12 12 12 11 10 10 9 9 8 7 6 6 5 4 4 3
7 8 11 5 4 7 9 10 10 10 8 6 6 6 6 5 6 7 7 7 8 9 9 10 11 11 12 12 12 12 12 11 10 10 10 9 8 8 7 6 5 4 4 3
7 9 9 5 5 7 9 9 8 9 8 6 4 4 5 4 5 6 6 6 7 7 8 10 10 11 12 13 13 13 12 12 11 11 10 10 9 8 7 6 6 5 4 4
9 10 9 5 3 4 7 8 5 7 6 5 5 5 3 2 3 4 4 4 5 6 7 9 10 11 12 13 13 13 12 12 11 11 10 10 9 8 7 6 5 5 4 3
11 10 8 2 3 6 8 2 2 5 6 6 6 4 1 1 2 3 3 4 5 7 7 8 10 11 12 13 13 11 11 10 10 10 10 9 8 7 7 6 6 5 5 4
11 11 8 5 6 6 2 1 2 3 4 5 4 2 1 1 2 2 3 4 5 7 7 8 9 11 12 12 11 10 10 10 10 10 9 8 8 7 7 7 6 6 5 5
8 6 1 5 5 3 3 3 2 3 3 3 3 3 2 2 2 2 3 4 5 6 7 8 9 9 10 9 10 11 11 10 10 10 9 8 8 8 7 7 6 6 5 5
8 7 6 5 4 4 4 5 3 3 3 4 3 3 2 2 2 2 3 4 5 7 8 8 8 8 8 8 10 11 11 11 10 9 9 8 6 6 6 6 6 6 5 5
10 6 6 7 5 4 4 4 3 3 3 4 3 3 3 2 2 2 3 4 5 6 6 7 8 7 7 8 10 11 11 10 10 9 8 8 6 4 5 4 4 5 5 5
8 6 6 6 4 4 4 4 4 3 3 2 3 3 3 2 3 3 4 5 6 6 6 7 7 7 7 8 10 10 9 9 8 7 7 7 7 5 5 3 5 3 2 2
6 4 5 4 4 5 5 5 4 4 4 3 2 2 3 3 3 4 4 5 6 6 6 7 7 7 7 8 9 10 9 9 7 7 7 7 7 7 6 5 6 5 4 4
6 5 5 5 4 3 4 4 3 3 3 3 2 2 2 3 4 5 5 5 5 6 6 7 7 7 7 7 8 9 9 8 7 7 7 7 7 6 6 6 6 4 4 5
7 7 6 3 2 2 3 3 4 3 2 2 3 3 4 4 4 5 5 5 6 6 6 6 7 6 6 7 8 8 8 7 6 6 7 7 6 6 6 6 6 5 5 6
6 6 5 4 4 4 4 5 4 3 3 3 3 3 4 4 5 5 5 6 7 7 6 6 6 6 6 7 7 6 6 8 7 6 6 7 6 6 6 6 6 5 5 5
7 6 6 5 5 5 5 4 4 3 3 3 3 4 4 5 6 6 6 6 6 6 6 6 6 6 7 7 7 6 6 7 8 7 6 6 6 6 6 6 5 5 4 4
8 7 7 7 6 5 5 4 4 3 3 3 4 5 5 6 6 6 6 6 6 6 5 5 5 6 6 6 6 5 5 6 6 6 6 6 6 6 5 6 6 6 5 6
7 6 5 5 5 5 4 3 3 3 3 4 5 5 5 5 5 6 7 7 7 6 5 5 6 6 7 6 5 5 5 6 6 6 6 7 6 6 6 6 6 6 6 5
5 5 5 4 4 4 4 3 3 3 4 4 5 5 5 5 5 6 6 5 4 3 5 6 6 6 6 7 6 5 6 6 6 6 6 6 6 6 6 6 6 6 6 5
5 5 5 4 3 3 3 4 4 4 4 5 6 6 5 5 5 6 6 4 4 4 6 6 5 5 5 6 6 5 5 6 6 6 6 6 6 6 6 6 6 6 5 5
4 4 4 3 3 3 3 4 4 5 5 5 5 6 6 6 6 5 4 3 4 5 4 4 4 6 7 7 5 5 6 6 6 6 5 6 6 6 6 6 6 5 5 5
3 3 3 3 3 2 2 3 4 4 5 5 5 6 6 5 5 5 4 3 4 5 4 4 6 9 9 6 5 6 6 6 6 6 6 6 6 6 6 7 6 6 5 5
2 2 2 2 2 3 3 3 3 3 4 4 4 5 6 5 4 3 3 6 6 6 4 6 9 9 7 5 5 5 6 6 6 6 6 6 6 6 6 6 6 6 6 6
2 2 2 3 2 2 3 4 4 4 4 4 4 4 4 3 4 4 4 6 7 7 6 8 9 8 5 5 5 5 5 5 6 6 6 6 6 6 6 6 6 6 5 5
2 2 2 2 2 2 3 3 3 3 4 4 4 3 3 4 5 5 5 6 8 7 6 5 6 6 4 5 5 6 6 6 6 6 6 6 7 7 6 6 7 6 5 5
2 2 2 2 2 2 2 3 3 3 3 4 4 4 4 4 4 5 6 5 6 5 5 5 5 4 5 5 5 6 5 5 6 6 6 6 6 6 6 7 6 5 5 5
Wind_Direction
250 260 233 236 229 220 228 242 254 262 267 273 275 274 251 219 194 190 187 186 185 185 185 184 183 186 182 180 177 176 179 184 182 179 176 175 166 168 171 168 170 165 160 152
234 233 240 243 235 227 231 242 251 263 268 276 274 259 235 214 208 211 206 200 193 191 188 187 184 186 181 180 179 180 182 183 177 178 174 173 173 169 168 166 166 163 167 152
236 230 247 240 231 226 226 233 241 249 259 262 260 251 242 221 213 219 213 206 199 194 194 190 188 187 185 181 179 181 183 181 176 179 174 175 172 169 167 167 163 162 161 153
239 230 237 239 207 225 226 231 236 248 260 252 255 258 249 231 215 223 216 208 204 200 198 194 189 186 182 178 180 182 182 181 178 178 176 174 172 171 170 167 161 161 156 157
227 235 247 232 213 214 223 233 229 237 248 249 254 236 215 213 223 224 217 206 203 203 197 190 185 181 177 179 180 181 182 181 180 179 176 175 176 176 172 167 164 162 154 159
224 231 238 218 169 205 227 230 214 223 231 225 218 231 210 197 225 226 214 200 194 189 184 183 179 174 176 179 180 183 182 180 177 176 175 175 177 176 170 167 166 161 153 163
225 234 243 226 166 188 218 224 173 215 223 214 221 252 274 214 218 211 204 193 181 177 176 174 171 172 177 178 182 180 174 172 172 174 174 172 170 169 168 166 164 165 158 161
216 225 225 154 172 204 262 13 193 212 219 223 233 252 247 220 201 190 178 178 176 172 170 166 169 175 177 180 177 169 167 169 171 172 171 164 163 166 169 167 164 166 169 165
219 227 172 171 201 232 287 268 250 230 220 216 222 227 232 220 188 175 169 172 171 168 163 162 168 177 180 176 168 165 166 168 170 170 167 163 164 167 169 173 175 175 176 175
224 222 215 214 216 236 250 261 261 240 224 220 221 219 218 208 178 170 168 163 163 165 165 162 165 173 177 164 166 167 167 167 167 167 162 162 165 170 172 176 179 180 181 181
229 226 217 219 224 242 250 257 245 232 229 222 211 210 201 187 172 173 165 159 160 162 162 162 162 163 163 162 167 167 166 165 165 164 161 159 158 160 178 175 185 183 181 181
223 212 224 222 222 240 243 242 236 227 226 218 209 203 196 180 167 167 164 157 157 158 160 160 160 157 157 162 167 167 164 164 165 163 160 159 155 140 75 79 101 112 113 157
250 240 256 255 247 239 239 241 237 229 222 211 205 194 187 172 164 161 160 157 157 157 159 158 157 154 155 161 165 168 165 162 162 163 162 164 165 161 151 114 87 92 107 121
236 233 242 235 238 239 235 232 221 216 212 200 177 163 156 154 151 154 156 155 154 153 154 153 151 150 153 159 163 166 162 157 159 160 162 165 167 167 163 158 151 137 116 119
229 232 236 234 232 222 206 199 195 188 181 176 163 156 153 154 149 144 144 145 146 147 148 150 149 149 152 157 161 162 159 158 160 158 160 161 161 161 161 159 153 147 140 129
232 236 219 209 214 219 206 198 193 187 185 179 168 158 153 148 139 136 138 144 146 145 147 151 152 150 154 159 156 155 153 148 153 155 156 156 158 160 160 158 155 155 154 150
211 212 208 205 208 213 215 210 203 191 184 181 168 155 150 144 139 139 141 144 142 139 141 147 151 152 158 160 157 154 151 150 153 156 158 157 158 159 158 157 156 156 153 144
223 223 217 215 211 210 216 215 206 194 183 168 159 156 157 158 153 150 150 148 141 133 134 142 143 148 151 156 155 150 149 152 159 157 156 155 155 155 155 155 156 156 147 139
219 215 210 210 211 210 212 213 205 190 168 163 165 161 158 155 150 149 151 152 151 147 146 139 139 148 146 144 142 145 149 150 150 150 148 145 149 149 152 155 155 154 148 144
199 194 186 190 200 206 206 203 186 174 169 164 160 155 153 150 146 147 151 151 150 144 144 144 148 141 140 140 144 147 147 148 147 146 147 151 152 150 149 151 151 149 146 144
172 169 170 176 193 202 198 192 180 171 166 166 163 158 152 147 148 149 149 145 136 135 138 142 144 140 139 140 147 144 143 144 144 145 146 148 148 147 147 148 146 144 143 141
158 164 167 176 190 198 191 182 173 165 162 164 162 155 150 150 149 142 138 137 138 142 146 147 142 133 136 140 141 139 143 144 142 141 144 144 145 144 144 142 139 137 136 134
146 161 168 179 186 188 171 160 160 161 163 164 164 161 157 154 154 151 147 139 140 142 143 139 133 134 140 141 137 137 140 140 138 138 139 141 141 141 141 139 136 135 134 132
128 143 147 154 158 158 157 149 143 151 155 155 160 159 153 146 140 133 128 136 137 136 133 128 131 134 137 135 134 136 137 137 136 137 136 134 134 134 134 134 133 131 131 130
130 137 138 143 149 149 146 142 140 142 140 135 134 136 138 137 138 135 133 137 134 133 130 129 131 134 136 131 133 134 134 134 135 135 134 134 133 131 130 130 128 126 125 125
131 139 144 152 147 149 151 148 148 147 141 132 127 125 122 120 126 128 127 132 132 130 129 131 136 136 132 129 127 127 128 129 130 131 133 132 131 130 128 126 125 125 124 123
123 130 136 129 131 145 153 155 153 152 149 144 138 134 131 130 131 132 130 130 131 130 128 128 130 129 128 126 125 125 126 126 127 127 129 128 127 126 127 126 124 123 124 125